Retour au catalogue

KUIPER-00543

ActifCommunicationsVLEO
NORAD 69612·PAYLOAD·🇺🇸 United States

Lancé Jun 17, 2026 depuis Guiana Space Centre

Loading…

Prochains Passages (prochaines 24 heures)

TLE

FraisSource: CelesTrak SupGP

Époque: Sep 14, 2026, 22:03 UTC

1 69612C 26140W   26257.91881944 -.00969920  00000+0 -75315-1 0  2578
2 69612  51.8959 327.3647 0004367 249.8326  42.1604 15.01795893    15

Suivez KUIPER-00543 en temps réel avec AllMySat

Download on the App Store